ACA73 EDDF-CYYZ

Flight info

Callsign ACA73
Flight time N/A
Altitude 38000
Route OBOKA5G/25C OBOKA Z28 DIBIR DCT BUDIP DCT RAVLO Y70 OTBED DCT ABLUC DCT OZRAT DCT WETFI DCT REVNU DCT RESNO/M080F390 DCT 56N020W 56N030W 56N040W 55N050W DCT LOMSI/N0470F400 N672A ANATI Q812 MAIRE DCT OBTAX Q824 LETAK IMEBA9
Aircraft A333/H-SDE3GHIJ2J3J5M1RVWXY/LB2D1

Departure

Time 2026-05-04 16:07
Airport Frankfurt Main Airport (EDDF)

Arrival

Time N/A
Airport Toronto Pearson International Airport (CYYZ)
Time Latitude Longitude Altitude Speed Heading
2026-05-04 15:31 50.04750 8.57128 368 ft 0 kts 120°
2026-05-04 15:47 50.04750 8.57127 360 ft 0 kts 120°
2026-05-04 15:48 50.04751 8.57127 360 ft 0 kts 120°
2026-05-04 15:51 50.04756 8.57112 360 ft 3 kts 120°
2026-05-04 15:52 50.04767 8.57085 367 ft 3 kts 124°
2026-05-04 15:52 50.04779 8.57060 364 ft 3 kts 135°
2026-05-04 15:52 50.04793 8.57042 362 ft 3 kts 170°
2026-05-04 15:52 50.04804 8.57042 364 ft 0 kts 204°
2026-05-04 15:53 50.04798 8.57037 361 ft 3 kts 204°
2026-05-04 15:53 50.04782 8.57025 362 ft 2 kts 205°
2026-05-04 15:53 50.04779 8.57023 365 ft 1 kts 205°
2026-05-04 15:58 50.04768 8.57015 368 ft 8 kts 205°
2026-05-04 15:59 50.04679 8.56952 366 ft 16 kts 204°
2026-05-04 15:59 50.04573 8.56897 367 ft 17 kts 193°
2026-05-04 15:59 50.04463 8.56857 369 ft 16 kts 190°
2026-05-04 15:59 50.04355 8.56831 369 ft 15 kts 189°
2026-05-04 16:00 50.04284 8.56856 371 ft 9 kts 127°
2026-05-04 16:00 50.04288 8.56952 366 ft 9 kts 68°
2026-05-04 16:00 50.04318 8.57077 371 ft 20 kts 69°
2026-05-04 16:00 50.04371 8.57302 370 ft 22 kts 69°
2026-05-04 16:01 50.04423 8.57515 366 ft 15 kts 69°
2026-05-04 16:01 50.04447 8.57615 373 ft 11 kts 70°
2026-05-04 16:01 50.04509 8.57877 374 ft 33 kts 70°
2026-05-04 16:01 50.04588 8.58213 374 ft 32 kts 68°
2026-05-04 16:02 50.04650 8.58474 374 ft 8 kts 71°
2026-05-04 16:02 50.04645 8.58538 377 ft 0 kts 122°
2026-05-04 16:02 50.04628 8.58559 377 ft 7 kts 142°
2026-05-04 16:03 50.04567 8.58603 376 ft 13 kts 159°
2026-05-04 16:03 50.04494 8.58591 375 ft 10 kts 228°
2026-05-04 16:03 50.04470 8.58513 377 ft 0 kts 249°
2026-05-04 16:06 50.04107 8.56997 371 ft 128 kts 249°
2026-05-04 16:07 50.03599 8.54831 482 ft 180 kts 251°
2026-05-04 16:07 50.02586 8.49006 2299 ft 208 kts 278°
2026-05-04 16:08 50.02867 8.46699 2723 ft 227 kts 283°
2026-05-04 16:08 50.02476 8.39002 4601 ft 254 kts 257°
2026-05-04 16:09 50.01755 8.33501 6002 ft 265 kts 256°
2026-05-04 16:09 50.01423 8.27789 7585 ft 273 kts 278°
2026-05-04 16:10 50.02845 8.22210 9242 ft 281 kts 290°